[[{"header":{"parameterUnit":"m.s-1","parameterCategory":1,"la1":30.2991,"la2":30.254,"lo1":-89.0895,"lo2":-89.0444,"dy":0.0017,"dx":0.0017,"nx":28,"ny":28,"refTime":"2025-08-23T21:00:00:Z","depth":0,"parameterNumber":2,"parameterNumberName":"U-component_of_WINDS"},"data":[0,0,0,0,0,0,0,0,0,0,0,0,0,0,0,0,0,0,0,0,0,0,0,0,0,0,0,0,0,0,0,0,0,0,0,0,0,0,0,0,0,0,0,0,0,0,0,0,0,0,0,0,0,0,0,0,0,0,-1.0446,-1.0446,0,-1.0471,-1.0471,-1.0471,-1.0514,-1.0515,-1.0515,-1.0516,-1.0539,-1.0539,-1.0539,0,0,0,0,0,0,0,0,0,0,0,0,0,-1.0433,-1.0433,-1.0446,-1.0446,-1.0446,-1.0471,-1.0471,-1.0471,-1.0514,-1.0515,-1.0516,-1.0516,-1.0539,-1.0539,-1.0539,0,0,0,0,0,0,0,0,0,0,0,0,0,-1.0446,-1.0433,-1.0446,-1.047,-1.0473,-1.0471,-1.0471,-1.0471,-1.0513,-1.0515,-1.0516,-1.0517,-1.0539,-1.0539,-1.0539,-1.0514,0,0,-1.0539,-1.0538,0,0,0,0,0,0,0,0,-1.0446,-1.0447,-1.0466,-1.0469,-1.0471,-1.049,-1.0475,-1.0485,-1.0513,-1.0498,-1.0516,-1.0518,-1.0522,-1.0523,-1.0525,-1.0515,-1.0516,-1.0538,-1.0538,-1.0538,-1.0538,0,0,0,0,0,0,0,-1.0445,-1.0446,-1.0455,-1.0467,-1.047,-1.048,-1.0483,-1.0477,-1.0503,-1.0499,-1.0502,-1.0505,-1.0524,-1.0525,-1.0526,-1.0516,-1.0538,-1.0538,-1.0538,-1.0538,-1.0487,-1.0485,0,0,0,0,0,0,-1.044,-1.0445,-1.0455,-1.0456,-1.0461,-1.0479,-1.0483,-1.0483,-1.0503,-1.0507,-1.0504,-1.0507,-1.0525,-1.0526,-1.0527,-1.0498,-1.0538,-1.0538,-1.0538,-1.0488,-1.0486,-1.0485,0,0,0,0,0,0,-1.044,-1.0441,-1.0454,-1.0451,-1.0454,-1.0478,-1.0478,-1.0483,-1.0485,-1.0507,-1.0511,-1.0501,-1.0526,-1.0527,-1.0517,-1.0499,-1.0538,-1.0538,-1.0489,-1.0487,-1.0486,-1.044,0,0,0,0,0,0,-1.0439,-1.044,-1.0431,-1.0451,-1.0454,-1.0443,-1.0477,-1.0482,-1.0484,-1.0489,-1.0505,-1.0509,-1.0527,-1.0517,-1.0517,-1.05,-1.0538,-1.0491,-1.0488,-1.0486,-1.0443,-1.0437,-1.0431,0,0,0,0,0,-1.0439,-1.0417,-1.043,-1.0431,-1.0443,-1.0442,-1.0444,-1.0466,-1.0483,-1.0474,-1.0488,-1.0508,-1.0502,-1.0516,-1.0516,-1.0498,-1.0492,-1.0489,-1.0486,-1.0446,-1.0438,-1.0432,0,0,0,0,0,0,-1.0393,-1.042,-1.0435,-1.0419,-1.0428,-1.0449,-1.0438,-1.0457,-1.046,-1.0464,-1.0491,-1.0494,-1.048,-1.0489,-1.0503,-1.0475,-1.05,-1.0497,-1.0469,-1.0462,-1.0457,-1.0453,-1.0538,0,0,0,0,0,-1.0381,-1.0379,-1.0402,-1.0386,-1.039,-1.0413,-1.0414,-1.043,-1.044,-1.0444,-1.0457,-1.0466,-1.0466,-1.0465,-1.0466,-1.0446,-1.0449,-1.0434,-1.0428,-1.0423,-1.042,-1.0409,-1.0402,-1.0476,-1.0476,-1.0476,0,0,-1.0356,-1.0371,-1.0367,-1.0377,-1.0386,-1.0382,-1.0416,-1.0411,-1.0408,-1.0443,-1.0433,-1.0444,-1.0456,-1.044,-1.0433,-1.0446,-1.0401,-1.042,-1.0416,-1.0415,-1.0405,-1.0398,-1.0392,-1.0474,-1.0474,-1.0474,0,0,-1.0308,-1.032,-1.0307,-1.0316,-1.033,-1.0346,-1.0343,-1.0362,-1.037,-1.0362,-1.0388,-1.0385,-1.0385,-1.0392,-1.0395,-1.0352,-1.0371,-1.0352,-1.032,-1.0309,-1.0303,-1.0298,-1.0281,-1.0275,-1.0349,-1.0349,-1.0349,0,-1.0275,-1.0271,-1.0298,-1.0291,-1.0294,-1.0328,-1.0315,-1.0322,-1.0335,-1.0336,-1.0351,-1.0352,-1.0362,-1.0347,-1.0337,-1.034,-1.0336,-1.0349,-1.0302,-1.0298,-1.0293,-1.0277,-1.0271,-1.0346,-1.0347,-1.0347,-1.0347,0,-1.0229,-1.0226,-1.0214,-1.0227,-1.0229,-1.0219,-1.0244,-1.0243,-1.026,-1.0275,-1.0266,-1.028,-1.0284,-1.0283,-1.0299,-1.0271,-1.0278,-1.0298,-1.0323,-1.0283,-1.0268,-1.0263,-1.0343,-1.0344,-1.0344,-1.0345,0,0,-1.015,-1.0179,-1.0174,-1.018,-1.0199,-1.0197,-1.0189,-1.0194,-1.0192,-1.0201,-1.0194,-1.0194,-1.0212,-1.0216,-1.0234,-1.0225,-1.0188,-1.0245,-1.0246,-1.0232,-1.0157,-1.014,-1.0133,-1.0202,-1.0201,-1.02,-1.0155,0,-1.0104,-1.0092,-1.0116,-1.0098,-1.0095,-1.0128,-1.0121,-1.0131,-1.0145,-1.0145,-1.016,-1.0159,-1.0184,-1.0187,-1.0179,-1.0194,-1.0173,-1.0198,-1.0194,-1.0194,-1.0187,-1.0125,-1.0108,-1.0064,-1.015,-1.0149,-1.0148,0,-1.0048,-1.0055,-1.0036,-1.0056,-1.0056,-1.0049,-1.0056,-1.0056,-1.0069,-1.008,-1.0085,-1.0107,-1.01,-1.0127,-1.0117,-1.0133,-1.0134,-1.0141,-1.014,-1.0138,-1.0166,-1.0119,-1.0051,-1.0043,-1.014,-1.0141,-1.0141,0,-0.9989,-0.9994,-0.9984,-0.9988,-1.0012,-1.0006,-1.0016,-1.003,-1.0032,-1.0039,-1.004,-1.0046,-1.0048,-1.0052,-1.0074,-1.0092,-1.0061,-1.009,-1.0068,-1.0068,-1.0058,-1.0057,-0.9985,-1.0062,-1.0063,-1.0063,-1.0063,0,-0.9934,-0.992,-0.9958,-0.995,-0.9937,-0.9966,-0.9952,-0.9965,-0.9977,-0.9973,-1.0003,-0.9998,-1.003,-1.0028,-1.0046,-1.0034,-1.0036,-1.0044,-1.0048,-1.0039,-1.0038,-1.0037,-1.004,-1.0061,-1.0061,-1.0062,-1.0062,0,-0.9864,-0.9889,-0.9879,-0.9904,-0.991,-0.9898,-0.9919,-0.9913,-0.9931,-0.9925,-0.9925,-0.9951,-0.9952,-0.9975,-0.998,-0.9992,-0.9972,-0.9983,-0.9967,-0.997,-0.9946,-0.9947,-0.9869,-0.986,-0.9945,-0.9944,-0.9944,0,-0.9825,-0.9816,-0.984,-0.984,-0.9849,-0.9848,-0.9851,-0.988,-0.9881,-0.9896,-0.9888,-0.9892,-0.9895,-0.9894,-0.9913,-0.9917,-0.9926,-0.9899,-0.9927,-0.9919,-0.9923,-0.9922,-0.9921,-0.9892,-0.9891,-0.989,-0.9889,0,-0.9754,-0.9767,-0.977,-0.9777,-0.9779,-0.9786,-0.9795,-0.9793,-0.9826,-0.9825,-0.9827,-0.9829,-0.9835,-0.9837,-0.9845,-0.9855,-0.9876,-0.9881,-0.9876,-0.9865,-0.9855,-0.9858,-0.9948,-0.9882,-0.9883,-0.9883,-0.9884,-0.9884,-0.9697,-0.969,-0.9706,-0.9708,-0.9719,-0.9727,-0.9722,-0.974,-0.9742,-0.9749,-0.9767,-0.9764,-0.9779,-0.9792,-0.9799,-0.9798,-0.9811,-0.9804,-0.9802,-0.9799,-0.9793,-0.9859,-0.98,-0.98,-0.98,-0.9801,-0.9801,0,-0.9624,-0.9637,-0.9639,-0.9651,-0.9653,-0.9676,-0.9688,-0.9687,-0.9685,-0.9697,-0.9701,-0.9702,-0.9705,-0.9725,-0.973,-0.9724,-0.9735,-0.9724,-0.9723,-0.9725,-0.9782,-0.9785,-0.9716,-0.9716,-0.9716,-0.9716,-0.9716,-0.9716,-0.9587,-0.9576,-0.9591,-0.9586,-0.9599,-0.9598,-0.9602,-0.961,-0.9619,-0.962,-0.9622,-0.9636,-0.9651,-0.9658,-0.9661,-0.9667,-0.9666,-0.9652,-0.9661,-0.9713,-0.9721,-0.9729,-0.9731,-0.9652,-0.9652,-0.9604,-0.9603,-0.9603]},{"header":{"parameterUnit":"m.s-1","parameterCategory":1,"la1":30.2991,"la2":30.254,"lo1":-89.0895,"lo2":-89.0444,"dy":0.0017,"dx":0.0017,"nx":28,"ny":28,"refTime":"2025-08-23T21:00:00:Z","depth":0,"parameterNumber":3,"parameterNumberName":"V-component_of_WINDS"},"data":[0,0,0,0,0,0,0,0,0,0,0,0,0,0,0,0,0,0,0,0,0,0,0,0,0,0,0,0,0,0,0,0,0,0,0,0,0,0,0,0,0,0,0,0,0,0,0,0,0,0,0,0,0,0,0,0,0,0,-1.5305,-1.5305,0,-1.5316,-1.5316,-1.5316,-1.5307,-1.5307,-1.5306,-1.5306,-1.5317,-1.5318,-1.5319,0,0,0,0,0,0,0,0,0,0,0,0,0,-1.5276,-1.5277,-1.5305,-1.5305,-1.5305,-1.5316,-1.5316,-1.5317,-1.5307,-1.5307,-1.5306,-1.5306,-1.5317,-1.5318,-1.5319,0,0,0,0,0,0,0,0,0,0,0,0,0,-1.5288,-1.5277,-1.5305,-1.5302,-1.5302,-1.5316,-1.5316,-1.5317,-1.5307,-1.5307,-1.5306,-1.5306,-1.5317,-1.5318,-1.5319,-1.5337,0,0,-1.5322,-1.5322,0,0,0,0,0,0,0,0,-1.5288,-1.5289,-1.5302,-1.5302,-1.5302,-1.531,-1.531,-1.5323,-1.5307,-1.5305,-1.5306,-1.5305,-1.5315,-1.5316,-1.532,-1.5337,-1.5338,-1.5322,-1.5323,-1.5323,-1.5323,0,0,0,0,0,0,0,-1.5287,-1.5289,-1.5309,-1.5302,-1.5302,-1.53,-1.5301,-1.5313,-1.5313,-1.5305,-1.5305,-1.5306,-1.5315,-1.5319,-1.532,-1.5338,-1.5322,-1.5323,-1.5323,-1.5324,-1.5373,-1.5374,0,0,0,0,0,0,-1.5286,-1.5288,-1.5309,-1.531,-1.5293,-1.5301,-1.5303,-1.5308,-1.5313,-1.5313,-1.5307,-1.5306,-1.5317,-1.5319,-1.532,-1.5343,-1.5323,-1.5324,-1.5325,-1.5372,-1.5373,-1.5374,0,0,0,0,0,0,-1.5286,-1.5288,-1.5309,-1.5299,-1.5301,-1.5302,-1.5308,-1.5308,-1.5312,-1.5314,-1.5314,-1.531,-1.5317,-1.5319,-1.5333,-1.5343,-1.5324,-1.5325,-1.5372,-1.5373,-1.5374,-1.5388,0,0,0,0,0,0,-1.5285,-1.5288,-1.5294,-1.5299,-1.5302,-1.5321,-1.5309,-1.5309,-1.5314,-1.5313,-1.5318,-1.5318,-1.5317,-1.5332,-1.5334,-1.5344,-1.5326,-1.5371,-1.5372,-1.5373,-1.5387,-1.5389,-1.5392,0,0,0,0,0,-1.5284,-1.5298,-1.5295,-1.5297,-1.531,-1.5322,-1.5323,-1.5321,-1.5315,-1.5322,-1.5323,-1.5318,-1.5342,-1.5333,-1.5336,-1.5347,-1.537,-1.5372,-1.5373,-1.5385,-1.5389,-1.5392,0,0,0,0,0,0,-1.5293,-1.5298,-1.5295,-1.5311,-1.5316,-1.532,-1.5328,-1.5325,-1.5332,-1.5331,-1.5328,-1.5329,-1.5345,-1.5347,-1.5338,-1.5365,-1.5355,-1.5357,-1.5363,-1.5367,-1.5369,-1.5368,-1.5327,0,0,0,0,0,-1.5298,-1.5307,-1.531,-1.5323,-1.5326,-1.5327,-1.5332,-1.533,-1.5336,-1.5338,-1.534,-1.5346,-1.5355,-1.5361,-1.5369,-1.5387,-1.5389,-1.5396,-1.5398,-1.54,-1.5402,-1.5414,-1.5417,-1.5379,-1.5379,-1.5379,0,0,-1.5306,-1.5309,-1.5315,-1.5325,-1.5329,-1.5339,-1.5329,-1.5339,-1.5347,-1.5339,-1.5353,-1.5356,-1.5362,-1.5379,-1.5386,-1.5381,-1.5413,-1.5402,-1.5404,-1.5405,-1.5416,-1.5419,-1.5423,-1.538,-1.538,-1.538,0,0,-1.5326,-1.5329,-1.5341,-1.5346,-1.5352,-1.5353,-1.5356,-1.5361,-1.5363,-1.5377,-1.5372,-1.5381,-1.5396,-1.5401,-1.5406,-1.543,-1.5426,-1.5433,-1.5446,-1.5457,-1.5461,-1.5463,-1.5473,-1.5477,-1.5435,-1.5435,-1.5435,0,-1.5335,-1.535,-1.5348,-1.536,-1.5365,-1.5359,-1.5372,-1.5377,-1.5385,-1.539,-1.5384,-1.5404,-1.5407,-1.5426,-1.5432,-1.5436,-1.544,-1.5432,-1.546,-1.5463,-1.5465,-1.5475,-1.5478,-1.5436,-1.5436,-1.5435,-1.5435,0,-1.5362,-1.5372,-1.5381,-1.5391,-1.5397,-1.5409,-1.541,-1.5417,-1.5415,-1.5417,-1.5432,-1.5437,-1.5446,-1.5451,-1.5449,-1.547,-1.5466,-1.546,-1.545,-1.547,-1.5479,-1.5482,-1.5437,-1.5437,-1.5436,-1.5436,0,0,-1.5387,-1.5397,-1.54,-1.5406,-1.5413,-1.5421,-1.5434,-1.5444,-1.545,-1.5457,-1.5468,-1.5482,-1.5477,-1.5482,-1.5481,-1.549,-1.5511,-1.5484,-1.5484,-1.549,-1.5537,-1.5542,-1.5546,-1.5509,-1.5509,-1.551,-1.5536,0,-1.5409,-1.5431,-1.543,-1.5451,-1.5461,-1.5457,-1.5468,-1.5474,-1.5477,-1.5486,-1.5489,-1.5499,-1.5491,-1.5494,-1.5504,-1.5507,-1.5521,-1.5505,-1.552,-1.552,-1.5519,-1.555,-1.5555,-1.558,-1.554,-1.554,-1.5541,0,-1.5436,-1.5445,-1.5467,-1.5474,-1.5479,-1.5489,-1.5499,-1.5508,-1.5515,-1.5516,-1.5523,-1.5521,-1.5535,-1.5524,-1.5544,-1.5533,-1.5539,-1.5542,-1.5543,-1.5544,-1.5532,-1.5553,-1.5587,-1.5591,-1.5546,-1.5546,-1.5545,0,-1.5454,-1.5471,-1.5487,-1.5491,-1.55,-1.5508,-1.5512,-1.5519,-1.5525,-1.5534,-1.5539,-1.5549,-1.5555,-1.5564,-1.5565,-1.5556,-1.5585,-1.5574,-1.5587,-1.5587,-1.5593,-1.5593,-1.5629,-1.5596,-1.5596,-1.5596,-1.5596,0,-1.5479,-1.5492,-1.5495,-1.5505,-1.5521,-1.5521,-1.5537,-1.554,-1.5547,-1.5558,-1.5554,-1.5565,-1.5565,-1.5576,-1.5577,-1.5594,-1.5596,-1.5598,-1.5599,-1.5599,-1.5599,-1.5603,-1.5602,-1.5597,-1.5597,-1.5597,-1.5596,0,-1.5501,-1.5504,-1.5521,-1.5529,-1.5531,-1.5542,-1.5549,-1.5559,-1.5561,-1.5575,-1.5579,-1.5583,-1.5596,-1.5598,-1.5612,-1.5613,-1.5634,-1.5632,-1.5631,-1.5631,-1.5645,-1.5644,-1.5686,-1.5692,-1.5654,-1.5654,-1.5655,0,-1.5517,-1.5528,-1.5537,-1.5544,-1.5549,-1.5561,-1.5568,-1.5569,-1.5577,-1.5587,-1.5596,-1.5609,-1.5619,-1.564,-1.5644,-1.5656,-1.5655,-1.5669,-1.5656,-1.5657,-1.5656,-1.5656,-1.5658,-1.5671,-1.5672,-1.5672,-1.5672,0,-1.5545,-1.5546,-1.5556,-1.5568,-1.5577,-1.5586,-1.5595,-1.5601,-1.5603,-1.5612,-1.5626,-1.5634,-1.565,-1.5663,-1.5675,-1.5679,-1.5677,-1.5676,-1.568,-1.5681,-1.5681,-1.5682,-1.5639,-1.5675,-1.5675,-1.5675,-1.5674,-1.5674,-1.5565,-1.5575,-1.5584,-1.5596,-1.5603,-1.5611,-1.5622,-1.5626,-1.5637,-1.5651,-1.565,-1.5666,-1.5675,-1.5691,-1.5696,-1.5709,-1.5704,-1.571,-1.5711,-1.5713,-1.5714,-1.5678,-1.5711,-1.5711,-1.5711,-1.5711,-1.5711,0,-1.5593,-1.5599,-1.5611,-1.5623,-1.5634,-1.5631,-1.564,-1.5649,-1.5663,-1.5671,-1.5682,-1.5698,-1.5711,-1.5718,-1.5731,-1.574,-1.5739,-1.5743,-1.5743,-1.5744,-1.5717,-1.5713,-1.5744,-1.5744,-1.5744,-1.5744,-1.5744,-1.5744,-1.5609,-1.5627,-1.5629,-1.5651,-1.5656,-1.5671,-1.5678,-1.5686,-1.5693,-1.5712,-1.5723,-1.5727,-1.5735,-1.5749,-1.5761,-1.5763,-1.5768,-1.5774,-1.5775,-1.5749,-1.5746,-1.5743,-1.5739,-1.5775,-1.5775,-1.5801,-1.5801,-1.5801]}]]